Hourly Weather Goiania

Today, 4 August, Tuesday

Time Temperature Precipitation Wind Pressure Humidity
00:00 +18°C° 0 mm 2 mps 704 mmHg 61%
01:00 +17°C° 0 mm 2 mps 704 mmHg 63%
02:00 +16°C° 0 mm 2 mps 703 mmHg 64%
03:00 +16°C° 0 mm 2 mps 703 mmHg 65%
04:00 +15°C° 0 mm 2 mps 703 mmHg 64%
05:00 +15°C° 0 mm 2 mps 703 mmHg 63%
06:00 +13°C° 0 mm 3 mps 703 mmHg 61%
07:00 +17°C° 0 mm 3 mps 704 mmHg 57%
08:00 +19°C° 0 mm 4 mps 705 mmHg 52%
09:00 +21°C° 0 mm 5 mps 705 mmHg 47%
10:00 +23°C° 0 mm 5 mps 705 mmHg 42%
11:00 +26°C° 0 mm 5 mps 706 mmHg 36%
12:00 +28°C° 0 mm 4 mps 706 mmHg 31%
13:00 +29°C° 0 mm 4 mps 705 mmHg 28%
14:00 +29°C° 0 mm 4 mps 704 mmHg 26%
15:00 +30°C° 0 mm 4 mps 704 mmHg 24%
16:00 +28°C° 0 mm 3 mps 703 mmHg 27%
17:00 +27°C° 0 mm 3 mps 703 mmHg 30%
18:00 +25°C° 0 mm 3 mps 703 mmHg 33%
19:00 +22°C° 0 mm 3 mps 703 mmHg 37%
20:00 +21°C° 0 mm 3 mps 703 mmHg 40%
21:00 +19°C° 0 mm 3 mps 703 mmHg 44%
22:00 +19°C° 0 mm 3 mps 703 mmHg 43%
23:00 +18°C° 0 mm 3 mps 703 mmHg 43%

Tomorrow, 5 August, Wednesday

Time Temperature Precipitation Wind Pressure Humidity
00:00 +17°C° 0 mm 2 mps 704 mmHg 43%
01:00 +17°C° 0 mm 2 mps 703 mmHg 44%
02:00 +16°C° 0 mm 2 mps 703 mmHg 45%
03:00 +14°C° 0 mm 3 mps 702 mmHg 45%
04:00 +14°C° 0 mm 3 mps 702 mmHg 48%
05:00 +14°C° 0 mm 3 mps 703 mmHg 50%
06:00 +13°C° 0 mm 3 mps 703 mmHg 52%
07:00 +15°C° 0 mm 4 mps 703 mmHg 51%
08:00 +18°C° 0 mm 4 mps 704 mmHg 49%
09:00 +20°C° 0 mm 5 mps 705 mmHg 47%
10:00 +22°C° 0 mm 5 mps 705 mmHg 41%
11:00 +26°C° 0 mm 4 mps 705 mmHg 35%
12:00 +28°C° 0 mm 4 mps 705 mmHg 29%
13:00 +29°C° 0 mm 4 mps 704 mmHg 27%
14:00 +29°C° 0 mm 4 mps 703 mmHg 25%
15:00 +30°C° 0 mm 4 mps 703 mmHg 23%
16:00 +28°C° 0 mm 3 mps 702 mmHg 28%
17:00 +27°C° 0 mm 3 mps 702 mmHg 32%
18:00 +25°C° 0 mm 2 mps 702 mmHg 36%
19:00 +23°C° 0 mm 2 mps 702 mmHg 40%
20:00 +21°C° 0 mm 2 mps 702 mmHg 43%
21:00 +19°C° 0 mm 2 mps 702 mmHg 47%
22:00 +18°C° 0 mm 2 mps 703 mmHg 48%
23:00 +18°C° 0 mm 2 mps 703 mmHg 50%

Day after tomorrow, 6 August, Thursday

Time Temperature Precipitation Wind Pressure Humidity
00:00 +17°C° 0 mm 2 mps 703 mmHg 52%
01:00 +17°C° 0 mm 2 mps 702 mmHg 54%
02:00 +16°C° 0 mm 3 mps 702 mmHg 56%
03:00 +16°C° 0 mm 3 mps 702 mmHg 58%
04:00 +16°C° 0 mm 3 mps 702 mmHg 60%
05:00 +16°C° 0 mm 3 mps 702 mmHg 62%
06:00 +14°C° 0 mm 3 mps 702 mmHg 64%
07:00 +17°C° 0 mm 4 mps 703 mmHg 60%
08:00 +19°C° 0 mm 5 mps 704 mmHg 55%
09:00 +20°C° 0 mm 5 mps 704 mmHg 51%
10:00 +22°C° 0 mm 5 mps 704 mmHg 44%
11:00 +26°C° 0 mm 4 mps 705 mmHg 36%
12:00 +28°C° 0 mm 4 mps 705 mmHg 29%
13:00 +29°C° 0 mm 4 mps 704 mmHg 26%
14:00 +30°C° 0 mm 3 mps 703 mmHg 24%
15:00 +30°C° 0 mm 3 mps 702 mmHg 21%
16:00 +29°C° 0 mm 3 mps 702 mmHg 25%
17:00 +27°C° 0 mm 3 mps 702 mmHg 28%
18:00 +25°C° 0 mm 2 mps 702 mmHg 32%
19:00 +23°C° 0 mm 2 mps 702 mmHg 35%
20:00 +21°C° 0 mm 3 mps 702 mmHg 39%
21:00 +19°C° 0 mm 3 mps 703 mmHg 43%
22:00 +19°C° 0 mm 3 mps 703 mmHg 44%
23:00 +18°C° 0 mm 3 mps 703 mmHg 45%

7 August, Friday

Time Temperature Precipitation Wind Pressure Humidity
00:00 +18°C° 0 mm 3 mps 703 mmHg 46%
01:00 +17°C° 0 mm 2 mps 702 mmHg 47%
02:00 +16°C° 0 mm 2 mps 702 mmHg 49%
03:00 +16°C° 0 mm 2 mps 702 mmHg 50%
04:00 +16°C° 0 mm 3 mps 702 mmHg 53%
05:00 +14°C° 0 mm 3 mps 702 mmHg 56%
06:00 +14°C° 0 mm 3 mps 702 mmHg 59%
07:00 +17°C° 0 mm 4 mps 703 mmHg 56%
08:00 +19°C° 0 mm 5 mps 704 mmHg 53%
09:00 +21°C° 0 mm 5 mps 704 mmHg 50%
10:00 +23°C° 0 mm 5 mps 704 mmHg 44%
11:00 +26°C° 0 mm 4 mps 704 mmHg 38%
12:00 +28°C° 0 mm 4 mps 704 mmHg 33%
13:00 +29°C° 0 mm 4 mps 704 mmHg 31%
14:00 +30°C° 0 mm 3 mps 703 mmHg 29%
15:00 +30°C° 0 mm 3 mps 702 mmHg 26%
16:00 +29°C° 0 mm 3 mps 702 mmHg 31%
17:00 +27°C° 0 mm 3 mps 702 mmHg 35%
18:00 +25°C° 0 mm 2 mps 701 mmHg 39%
19:00 +24°C° 0 mm 3 mps 702 mmHg 42%
20:00 +22°C° 0 mm 3 mps 702 mmHg 46%
21:00 +21°C° 0 mm 3 mps 702 mmHg 50%
22:00 +20°C° 0 mm 3 mps 702 mmHg 52%
23:00 +19°C° 0 mm 3 mps 702 mmHg 54%

8 August, Saturday

Time Temperature Precipitation Wind Pressure Humidity
00:00 +19°C° 0 mm 3 mps 702 mmHg 56%
01:00 +18°C° 0 mm 3 mps 702 mmHg 58%
02:00 +18°C° 0 mm 3 mps 702 mmHg 60%
03:00 +17°C° 0 mm 2 mps 701 mmHg 63%
04:00 +17°C° 0 mm 2 mps 702 mmHg 65%
05:00 +16°C° 0 mm 2 mps 702 mmHg 67%
06:00 +16°C° 0 mm 2 mps 702 mmHg 69%
07:00 +18°C° 0 mm 3 mps 703 mmHg 62%
08:00 +20°C° 0 mm 4 mps 704 mmHg 56%
09:00 +23°C° 0 mm 5 mps 704 mmHg 49%
10:00 +26°C° 0 mm 4 mps 704 mmHg 42%
11:00 +28°C° 0 mm 3 mps 704 mmHg 35%
12:00 +30°C° 0 mm 2 mps 704 mmHg 28%
13:00 +30°C° 0 mm 2 mps 704 mmHg 26%
14:00 +31°C° 0 mm 2 mps 703 mmHg 24%
15:00 +31°C° 0 mm 1 mps 702 mmHg 22%
16:00 +29°C° 0 mm 1 mps 702 mmHg 25%
17:00 +28°C° 0 mm 1 mps 701 mmHg 28%
18:00 +26°C° 0 mm 1 mps 701 mmHg 31%
19:00 +24°C° 0 mm 2 mps 701 mmHg 36%
20:00 +22°C° 0 mm 3 mps 702 mmHg 40%
21:00 +21°C° 0 mm 3 mps 702 mmHg 45%
22:00 +20°C° 0 mm 3 mps 702 mmHg 49%
23:00 +19°C° 0 mm 3 mps 702 mmHg 53%

9 August, Sunday

Time Temperature Precipitation Wind Pressure Humidity
00:00 +19°C° 0 mm 2 mps 702 mmHg 57%
01:00 +18°C° 0 mm 2 mps 702 mmHg 59%
02:00 +18°C° 0 mm 2 mps 701 mmHg 60%
03:00 +17°C° 0 mm 2 mps 701 mmHg 61%
04:00 +17°C° 0 mm 3 mps 701 mmHg 61%
05:00 +17°C° 0 mm 3 mps 701 mmHg 61%
06:00 +17°C° 0 mm 3 mps 701 mmHg 61%
07:00 +19°C° 0 mm 4 mps 702 mmHg 56%
08:00 +21°C° 0 mm 5 mps 702 mmHg 51%
09:00 +23°C° 0 mm 5 mps 703 mmHg 47%
10:00 +26°C° 0 mm 4 mps 703 mmHg 40%
11:00 +28°C° 0 mm 3 mps 703 mmHg 34%
12:00 +30°C° 0 mm 2 mps 703 mmHg 28%
13:00 +31°C° 0 mm 2 mps 702 mmHg 26%
14:00 +32°C° 0 mm 1 mps 701 mmHg 24%
15:00 +32°C° 0 mm 1 mps 701 mmHg 22%
16:00 +30°C° 0 mm 1 mps 700 mmHg 25%
17:00 +28°C° 0 mm 1 mps 700 mmHg 28%
18:00 +27°C° 0 mm 1 mps 700 mmHg 31%
19:00 +25°C° 0 mm 2 mps 700 mmHg 34%
20:00 +24°C° 0 mm 2 mps 700 mmHg 37%
21:00 +21°C° 0 mm 2 mps 700 mmHg 41%
22:00 +21°C° 0 mm 2 mps 700 mmHg 43%
23:00 +20°C° 0 mm 2 mps 700 mmHg 45%
Show more